Wind_Speed
6 9 1 8 6 5 3 3 5 4 5 5 5 5 9 16 15 14 13 14 14 14 13 15 16 16 16 15 14 14 13 13 12 10 8 6 7 6 7 8 7 7 6 5
8 11 6 2 2 3 3 3 9 5 3 6 3 2 6 15 15 15 14 13 14 14 13 15 16 18 19 18 18 18 17 16 15 12 9 5 4 5 6 8 8 9 8 8
15 9 5 3 1 7 7 9 8 6 3 4 5 7 7 10 12 12 14 13 15 15 15 14 17 19 19 20 21 21 21 21 17 13 10 7 5 5 6 7 8 8 8 9
15 11 6 6 4 7 8 5 3 3 9 6 9 11 6 8 12 15 16 16 16 17 16 15 16 18 20 21 20 22 22 19 17 16 11 10 8 7 5 7 8 10 9 9
12 10 10 11 5 4 6 2 4 5 2 6 6 4 7 6 8 13 16 16 16 16 16 16 15 15 15 16 20 22 22 21 18 19 14 13 13 9 5 5 5 9 7 8
12 2 6 1 3 2 1 6 7 4 5 11 6 5 8 7 7 9 10 13 13 12 12 13 15 14 14 15 17 20 23 24 21 17 17 16 12 12 9 7 5 6 6 6
17 12 5 5 7 3 7 13 2 0 5 9 4 3 9 8 6 5 7 6 8 9 9 11 12 14 15 17 17 19 22 23 23 22 20 20 19 15 13 10 9 8 8 7
15 16 17 9 11 9 5 10 3 1 4 9 2 6 7 5 5 4 3 3 3 4 6 9 11 14 16 19 18 19 21 21 23 23 20 18 18 16 16 15 13 11 10 9
13 10 7 5 4 11 7 6 9 3 4 2 3 7 6 4 7 6 4 4 4 4 4 6 9 13 17 20 20 20 20 21 22 23 20 17 16 17 15 12 10 12 11 8
9 13 6 8 7 4 8 4 5 2 2 3 8 2 9 7 7 6 5 5 5 5 5 6 7 11 14 17 18 17 17 18 21 21 19 16 16 18 17 15 14 13 11 11
5 11 10 10 11 12 6 8 5 2 5 2 1 8 7 5 5 2 5 4 5 6 7 8 8 10 12 14 17 18 19 18 19 20 20 19 18 18 18 17 17 16 14 13
10 12 12 12 6 3 5 8 10 8 9 2 6 9 7 6 7 3 1 3 2 2 6 6 7 8 9 13 17 19 19 19 20 20 20 21 20 17 17 16 16 15 14 12
12 8 9 10 9 5 7 10 9 4 2 4 6 8 5 7 8 6 4 3 3 5 6 7 7 8 9 11 13 17 19 20 18 18 20 21 21 20 18 17 17 15 14 13
12 10 11 10 8 8 8 10 10 11 6 8 3 9 8 7 7 8 6 4 3 3 3 4 4 4 6 8 11 14 16 17 18 18 19 20 21 20 18 17 16 16 15 15
16 16 11 9 4 2 10 12 10 10 6 5 12 5 6 6 6 6 7 7 6 4 3 3 1 2 5 7 8 9 11 13 15 16 16 17 17 17 16 14 13 12 11 11
14 11 13 15 5 6 9 7 8 5 5 3 3 5 4 5 6 7 9 10 11 10 9 8 7 6 6 6 6 7 8 10 11 12 12 13 13 15 15 14 14 9 9 14
14 12 9 14 11 9 11 12 11 8 6 4 8 9 9 9 10 10 11 11 11 11 11 12 11 12 13 9 6 4 3 4 6 7 8 5 10 12 17 17 13 8 12 22
12 14 11 10 10 13 6 5 4 4 4 4 9 11 10 10 10 10 9 9 9 10 10 10 12 13 13 12 10 8 8 6 8 2 3 5 8 8 4 0 7 11 20 25
11 14 8 8 13 7 5 6 10 11 7 9 14 13 12 10 10 9 8 9 9 10 10 11 11 11 11 12 11 13 13 12 11 14 12 9 5 2 10 14 17 23 24 24
11 13 11 10 15 11 8 13 7 6 10 11 13 12 11 8 8 8 7 8 10 12 12 11 11 12 13 13 12 13 12 12 10 7 3 4 6 8 11 15 20 24 25 27
11 12 15 11 11 5 5 16 11 10 5 19 14 11 9 4 6 10 9 9 11 11 11 11 14 15 13 11 11 12 9 9 6 5 6 7 8 9 11 15 20 22 23 22
11 10 10 11 10 8 13 14 12 4 15 18 13 11 10 9 9 9 9 9 9 9 10 11 11 11 10 9 8 9 10 7 7 7 7 8 9 10 14 19 26 16 12 17
11 12 9 9 10 5 25 11 10 9 17 15 14 12 10 10 10 9 9 9 9 11 10 9 10 12 12 11 10 9 7 5 2 2 4 6 9 10 14 19 24 19 8 15
4 2 5 8 5 11 20 6 12 12 16 15 14 13 11 10 11 11 9 9 10 11 10 10 11 10 9 8 7 7 7 7 5 5 7 9 11 13 15 16 18 22 23 27
3 9 7 4 7 9 11 12 14 16 17 15 14 11 9 12 12 11 11 10 11 10 9 9 9 10 9 10 11 10 9 9 9 8 9 9 7 7 9 15 14 15 15 12
7 8 9 8 16 13 18 17 19 18 18 16 14 12 11 13 13 12 11 12 11 11 10 10 9 9 9 10 10 10 11 11 8 10 10 9 8 8 8 9 14 14 9 5
Wind_Direction
201 254 101 27 36 43 36 12 38 107 160 243 197 190 175 186 192 191 196 193 203 215 202 208 206 208 205 207 207 202 197 189 188 196 203 211 215 209 213 211 219 226 232 238
201 236 89 4 11 342 349 21 47 135 143 253 145 232 179 190 199 200 201 207 215 215 217 209 214 211 210 206 206 200 200 197 195 188 191 209 211 198 191 195 206 215 226 228
230 81 132 225 239 299 97 10 18 10 184 202 288 128 141 188 206 214 220 221 220 223 223 218 212 215 213 213 207 202 200 201 201 199 185 195 219 217 207 214 218 231 227 234
233 139 210 250 295 323 78 1 338 337 329 48 325 107 126 162 204 218 226 226 231 228 225 224 223 215 214 213 208 205 200 198 203 202 198 203 217 207 210 219 223 225 226 229
208 207 225 247 29 332 43 302 323 318 343 206 65 96 108 159 204 217 221 228 227 229 229 221 219 221 220 208 203 201 197 193 189 195 202 211 226 221 233 224 209 218 226 225
224 151 248 352 114 308 178 243 235 236 252 68 31 323 119 129 131 173 205 218 229 235 225 220 211 206 205 200 195 194 193 197 197 196 201 214 219 226 247 256 252 246 238 234
216 211 178 221 239 185 215 247 184 106 106 65 53 259 75 124 143 109 140 176 207 219 217 210 202 192 195 194 194 191 195 199 202 206 209 212 219 221 231 240 241 245 232 232
205 206 215 197 245 299 227 312 347 167 33 99 174 55 88 111 143 163 205 160 137 198 204 203 192 200 197 194 193 193 195 204 203 204 210 212 218 218 225 230 234 222 224 222
196 204 121 193 204 241 145 224 23 230 160 215 60 132 114 195 229 214 178 176 181 184 160 172 173 187 192 195 194 195 197 203 207 209 210 213 218 219 224 237 230 231 229 224
205 186 178 152 169 192 292 91 210 212 97 32 108 90 81 92 119 127 147 150 135 127 132 151 171 178 186 195 194 199 202 208 209 211 214 219 219 217 221 226 227 228 223 214
251 217 144 168 213 173 179 217 234 40 328 345 157 95 44 60 51 61 124 119 107 122 142 154 163 172 180 186 192 199 204 206 207 212 215 217 220 220 222 227 224 222 220 213
215 211 165 190 106 4 300 235 198 243 147 46 309 95 80 63 62 45 106 134 95 147 144 152 161 171 177 188 196 199 205 209 212 214 216 219 222 225 222 226 218 222 223 220
185 225 173 170 173 172 225 201 234 295 351 133 298 109 81 72 78 78 68 91 171 181 160 164 165 172 196 197 205 208 209 214 216 212 214 220 218 218 223 217 219 221 224 223
191 218 232 192 199 162 177 187 208 234 189 144 270 122 132 58 46 44 42 55 128 168 153 163 177 182 208 223 219 221 222 221 219 215 215 213 214 216 218 217 218 222 224 220
214 227 220 244 67 242 196 176 190 227 290 261 136 175 67 30 26 41 52 64 81 90 99 94 268 239 251 254 256 252 246 235 232 229 224 218 219 214 213 212 213 219 230 234
210 225 208 228 190 234 220 187 190 201 208 215 211 136 59 84 94 83 77 71 69 64 57 46 31 7 342 324 302 289 272 256 243 242 244 234 217 209 196 178 161 192 226 237
193 215 198 218 194 193 216 200 190 180 194 255 216 103 131 110 91 79 81 75 66 57 47 39 32 23 12 354 343 330 312 256 236 236 241 176 157 160 164 171 180 157 258 247
202 206 208 228 176 214 100 143 238 222 175 184 112 137 122 114 105 88 63 72 64 52 44 38 33 30 23 27 37 39 43 58 83 125 142 125 117 113 96 338 193 237 260 249
213 206 198 196 208 121 144 176 176 183 151 169 144 145 143 136 133 93 72 66 63 59 52 46 42 41 41 45 53 68 69 72 75 82 90 89 67 340 292 286 267 260 258 247
200 213 212 202 221 209 217 171 187 192 175 179 164 167 161 177 217 104 92 76 70 63 58 53 58 64 65 65 74 77 79 82 80 84 69 352 338 328 318 305 295 279 267 253
175 202 211 189 209 151 123 151 166 205 159 171 188 173 174 167 53 107 104 87 80 71 65 72 64 66 67 67 70 71 66 56 40 37 38 40 27 3 345 331 321 290 270 248
177 186 201 202 199 184 166 150 192 130 149 160 167 158 152 125 125 114 105 92 81 78 68 62 70 71 64 61 61 57 53 52 58 66 68 48 21 10 1 354 347 331 281 246
218 211 180 224 199 150 173 178 170 162 157 162 160 155 146 146 137 125 111 97 89 85 78 75 85 84 73 64 57 59 47 30 59 65 29 14 8 7 6 16 18 30 54 89
195 224 191 188 141 160 180 179 173 170 159 159 157 152 156 142 137 129 121 111 106 98 91 93 92 80 64 46 45 42 28 19 16 42 26 54 50 48 39 37 49 60 73 88
85 169 166 100 119 152 179 191 169 153 153 150 143 144 141 139 133 127 121 117 109 104 99 92 81 75 70 62 57 53 42 38 60 64 69 63 71 80 69 59 52 61 67 78
185 162 197 199 176 185 184 177 165 152 149 147 138 128 122 124 130 127 121 120 115 103 96 89 91 84 80 77 64 50 48 50 61 86 81 73 62 60 72 79 73 68 75 81
Height
739 751 757 754 753 756 762 764 768 767 761 767 769 769 770 769 771 775 776 777 780 781 781 787 791 795 799 804 807 812 814 816 818 821 822 824 824 825 827 827 828 828 829 830
753 760 747 748 751 755 757 760 768 764 760 765 767 769 762 766 769 770 773 774 775 777 777 781 786 789 794 799 803 807 810 813 815 817 819 821 822 823 824 825 826 826 827 828
753 749 745 753 755 758 752 760 765 771 760 758 760 777 776 768 766 766 765 764 766 769 773 774 780 784 788 793 798 803 806 810 813 816 817 820 822 823 824 824 824 824 825 825
745 740 752 755 757 751 761 754 759 761 759 778 754 791 777 770 772 767 764 762 760 760 762 767 771 777 781 786 793 799 803 808 811 814 815 817 816 817 818 821 822 823 823 823
753 752 757 759 755 750 765 750 754 755 758 756 768 768 778 770 774 764 759 754 751 751 753 758 765 771 777 783 788 794 800 804 807 810 812 815 817 817 817 818 820 821 822 822
737 734 741 742 748 749 748 754 751 748 751 780 772 768 770 762 757 752 748 747 747 746 748 753 759 767 774 779 785 790 795 800 804 807 809 813 816 817 818 818 818 819 820 821
749 748 738 739 753 747 755 750 773 781 777 791 763 764 763 749 746 744 744 744 742 742 745 749 757 763 771 776 781 786 791 795 798 802 805 808 811 812 815 816 816 816 817 818
765 776 744 734 748 752 752 747 769 808 794 782 764 779 765 739 739 739 740 738 740 740 739 744 752 759 767 772 777 781 786 791 795 798 802 804 807 810 812 813 812 814 814 815
757 758 730 735 736 740 755 762 743 762 763 772 767 757 744 738 741 738 739 740 740 739 741 744 751 757 763 768 773 778 782 787 791 794 798 801 802 804 806 809 810 811 813 812
735 761 737 742 738 742 742 737 766 760 798 800 780 774 770 752 747 741 742 740 738 738 741 745 748 753 759 765 771 776 780 784 786 789 793 796 798 800 802 805 806 807 809 810
727 733 755 746 751 748 755 756 753 750 763 787 790 778 750 754 747 743 737 737 736 738 742 744 747 752 756 762 767 772 776 778 781 784 787 791 794 796 799 800 802 803 805 807
727 729 757 749 734 730 732 740 743 764 784 771 773 774 741 744 743 743 742 739 740 741 741 744 748 752 756 760 763 766 770 773 775 779 783 786 789 792 795 798 799 802 803 805
725 739 760 759 748 741 745 739 735 735 743 776 777 774 738 739 743 746 744 742 743 740 742 744 747 751 754 757 760 762 765 768 771 774 777 780 783 787 790 793 796 799 802 803
721 725 740 756 746 729 753 747 741 740 758 764 762 759 745 747 749 747 745 743 742 743 745 744 748 751 755 757 759 761 762 764 767 769 772 775 778 781 784 788 792 795 798 800
719 741 734 727 735 736 736 743 745 751 742 761 750 754 749 752 752 751 745 744 745 746 746 748 750 753 757 758 761 763 764 765 766 768 770 772 775 778 782 786 789 793 797 799
714 739 730 746 738 740 747 738 741 744 746 747 749 753 747 746 746 748 748 748 751 752 752 753 754 756 757 759 761 762 763 765 766 767 770 770 774 776 780 783 785 791 793 796
722 729 744 758 739 746 763 744 742 743 739 740 758 742 744 752 752 751 751 753 757 758 761 761 762 762 763 761 761 761 762 763 765 768 769 771 773 777 778 778 783 779 785 788
722 728 734 746 748 785 741 728 731 738 740 736 740 746 745 751 751 753 754 758 762 764 765 766 766 767 768 766 766 765 765 766 768 771 774 776 778 780 781 782 779 778 781 788
705 718 740 753 756 749 749 741 741 744 754 734 743 746 748 749 750 760 760 762 766 768 769 770 771 772 772 771 772 771 772 773 774 775 777 779 780 781 781 781 780 779 779 778
712 711 729 740 754 771 731 723 718 724 764 735 737 743 746 746 756 761 761 764 768 771 774 775 776 776 776 776 777 776 777 777 778 779 780 780 781 780 779 777 774 771 770 768
732 730 737 736 743 734 716 719 722 764 746 729 733 737 742 751 753 756 762 767 770 774 776 777 779 779 780 780 780 780 780 780 781 781 781 781 781 780 779 775 769 762 760 761
722 729 728 722 739 755 710 726 742 722 716 723 729 735 741 747 753 759 765 769 772 776 777 778 780 783 784 784 783 782 782 783 783 783 783 782 782 780 777 772 764 755 753 756
720 699 711 713 718 705 701 703 707 707 718 725 730 734 740 747 754 761 767 772 775 779 780 782 783 785 786 786 785 785 785 785 783 783 783 783 782 780 777 773 768 758 758 759
707 702 703 714 714 707 704 704 706 709 717 723 727 735 739 747 756 764 769 773 777 780 782 784 786 787 788 788 787 787 786 785 783 783 783 783 783 783 781 779 775 773 770 769
694 703 708 718 714 713 711 710 708 713 719 724 731 736 741 749 759 766 772 776 780 783 785 786 787 791 792 791 789 788 787 785 784 785 785 786 785 784 783 781 781 782 780 782
691 694 703 702 699 696 702 706 709 716 723 729 735 742 747 756 764 770 775 779 782 785 788 792 793 794 793 792 792 791 790 789 787 788 789 788 788 787 788 788 787 786 786 787